Orbital Elements at Epoch 2459200.5 (2020-Dec-17.0) TDB
Reference: JPL 20 (heliocentric ecliptic J2000)
Element | Value | Uncertainty (1-sigma) | Units |
e | .2262360416635633 | 6.382e-08 | |
a | 2.776704993908919 | 1.27e-08 | au |
q | 2.148514247219516 | 1.7462e-07 | au |
i | 17.172968148112 | 6.548e-06 | deg |
node | 322.4781357672996 | 1.399e-05 | deg |
peri | 32.61329603159594 | 1.8837e-05 | deg |
M | 15.42966351216105 | 8.9734e-06 | deg |
tp | 2459128.065245375157 (2020-Oct-05.56524538) | 4.2221e-05 | TDB |
period | 1690.024649234319 4.63 | 1.1594e-05 3.174e-08 | d yr |
n | .2130146445870486 | 1.4614e-09 | deg/d |
Q | 3.404895740598322 | 1.5573e-08 | au |
|
| | Orbit Determination Parameters
Additional Information
|